This is the latest recevied weather packets stored in our database for station/object KQ4NAL. If no packets are shown the sender has not sent any weather packets the latest 10 day(s).
| Time | Temp. | Humidity | Pressure | Rain* | Wind** | Luminosity | Snow |
|---|---|---|---|---|---|---|---|
| 1778176394 | 14.44° C | 44% | 1016.1 hPa | 0 mm | - | 699 W/m² | - |
| 1778176092 | 15.56° C | 43% | 1016.3 hPa | 0 mm | - | 687 W/m² | - |
| 1778175790 | 15.56° C | 36% | 1016.3 hPa | 0 mm | - | 696 W/m² | - |
| 1778175487 | 15.56° C | 41% | 1016.2 hPa | 0 mm | - | 741 W/m² | - |
| 1778175184 | 15° C | 43% | 1016.2 hPa | 0 mm | - | 757 W/m² | - |
| 1778174880 | 15.56° C | 46% | 1016.3 hPa | 0 mm | - | 767 W/m² | - |
| 1778174577 | 15.56° C | 39% | 1016.3 hPa | 0 mm | - | 781 W/m² | - |
| 1778174272 | 15° C | 45% | 1016.4 hPa | 0 mm | - | 780 W/m² | - |
| 1778173969 | 15.56° C | 44% | 1016.3 hPa | 0 mm | - | 763 W/m² | - |
| 1778173667 | 15° C | 42% | 1016.5 hPa | 0 mm | - | 751 W/m² | - |
| 1778173363 | 14.44° C | 39% | 1016.7 hPa | 0 mm | - | 775 W/m² | - |
| 1778173059 | 15° C | 39% | 1016.7 hPa | 0 mm | - | 799 W/m² | - |
| 1778172755 | 15° C | 43% | 1016.5 hPa | 0 mm | - | 815 W/m² | - |
| 1778172452 | 14.44° C | 42% | 1016.6 hPa | 0 mm | - | 819 W/m² | - |
| 1778172149 | 14.44° C | 40% | 1017 hPa | 0 mm | - | 804 W/m² | - |
| 1778171846 | 14.44° C | 38% | 1016.9 hPa | 0 mm | - | 777 W/m² | - |
| 1778171544 | 14.44° C | 44% | 1017 hPa | 0 mm | - | 781 W/m² | - |
| 1778171239 | 14.44° C | 42% | 1016.6 hPa | 0 mm | - | 757 W/m² | - |
| 1778170935 | 14.44° C | 40% | 1016.8 hPa | 0 mm | - | 764 W/m² | - |
| 1778170632 | 14.44° C | 43% | 1016.9 hPa | 0 mm | - | 597 W/m² | - |
| 1778170329 | 14.44° C | 44% | 1016.8 hPa | 0 mm | - | 794 W/m² | - |
| 1778170024 | 13.89° C | 41% | 1017 hPa | 0 mm | - | 833 W/m² | - |
| 1778169721 | 13.89° C | 45% | 1017 hPa | 0 mm | - | 830 W/m² | - |
| 1778169417 | 14.44° C | 44% | 1017 hPa | 0 mm | - | 813 W/m² | - |
| 1778169114 | 13.89° C | 44% | 1017 hPa | 0 mm | - | 856 W/m² | - |
* Rain latest hour (hover to see other rain measurements)
** Current wind speed in m/s (hover to see current wind gust speed)